Home > Weather > Taipei > Past weeks

Flag for Taiwan Past Weather in Taipei, Taiwan — Yesterday and Last 2 Weeks

Now
95 °F

Broken clouds.


Feels Like: 100 °F
Forecast: 81 / 91 °F
Wind: 3 mph from North

Location: Sungshan / Taipei

Current Time: Jul 1, 2016 at 12:35:20 PM

Latest Report: Jul 1, 2016 at 12:00 PM


Visibility: N/A

Pressure: 29.83 "Hg

Humidity: 41%

Dew Point: 68 °F

Location of TaipeiLocation

Past Weather in Taipei — Graph

°F

Taipei Temperature Yesterday

Maximum temperature yesterday: 95 °F (at 1:30 PM)
Minimum temperature yesterday: 77 °F (at 12:00 AM)
Average temperature yesterday: 86 °F

High & Low Weather Summary for the Past Weeks

 TemperatureHumidityPressure
High97 °F (Jun 16, 1:00 PM)89% (Jun 17, 4:30 PM)30.01 "Hg (Jun 17, 4:30 PM)
Low77 °F (Jun 17, 5:30 PM)39% (Jul 1, 11:00 AM)29.65 "Hg (Jun 16, 1:00 PM)
Average86 °F67%29.82 "Hg
* Reported Jun 16 11:00 AM — Jul 1 11:00 AM, Taipei, Weather by CustomWeather, © 2016

Note: Actual official high and low records may vary slightly from our data, if they occured in-between our weather recording intervals... More about our weather records

Advertising

Taipei Weather History for the Previous 24 Hours

Scroll right to see more
 ConditionsComfort  
Time TempWeatherWind HumidityBarometerVisibility
11:00 AM
Fri, Jul 1
95 °FScattered clouds.5 mph39%29.83 "HgN/A
10:30 AM93 °FScattered clouds.3 mph49%29.83 "HgN/A
10:00 AM91 °FScattered clouds.5 mph52%29.86 "HgN/A
9:30 AM90 °FScattered clouds.5 mph55%29.86 "HgN/A
9:00 AM90 °FPartly sunny.3 mph59%29.86 "HgN/A
8:30 AM86 °FBroken clouds.1 mph62%29.86 "HgN/A
8:00 AM86 °FBroken clouds.No wind62%29.86 "HgN/A
7:30 AM86 °FBroken clouds.2 mph62%29.86 "HgN/A
7:00 AM84 °FPartly sunny.1 mph70%29.86 "HgN/A
6:30 AM82 °FBroken clouds.2 mph74%29.86 "HgN/A
6:00 AM81 °FBroken clouds.No wind79%29.86 "HgN/A
5:00 AM81 °FPartly cloudy.2 mph74%29.83 "HgN/A
4:00 AM81 °FPassing clouds.No wind74%29.83 "HgN/A
3:00 AM82 °FPassing clouds.1 mph74%29.83 "HgN/A
2:00 AM82 °FPassing clouds.2 mph74%29.83 "HgN/A
1:00 AM82 °FPassing clouds.1 mph70%29.86 "HgN/A
12:00 AM84 °FPassing clouds.3 mph66%29.86 "HgN/A
11:30 PM
Thu, Jun 30
84 °FClear.2 mph70%29.89 "Hg10 mi
11:00 PM84 °FPassing clouds.2 mph70%29.89 "HgN/A
10:30 PM86 °FPassing clouds.5 mph66%29.89 "HgN/A
10:00 PM84 °FPassing clouds.3 mph66%29.89 "HgN/A
9:00 PM86 °FPassing clouds.5 mph62%29.89 "HgN/A
8:30 PM84 °FPassing clouds.6 mph66%29.89 "HgN/A
8:00 PM84 °FPassing clouds.8 mph62%29.89 "HgN/A
7:30 PM84 °FPartly cloudy.7 mph66%29.86 "HgN/A
7:00 PM88 °FPartly cloudy.3 mph55%29.86 "HgN/A
6:30 PM88 °FBroken clouds.3 mph59%29.86 "HgN/A
6:00 PM90 °FPartly sunny.3 mph52%29.86 "HgN/A
5:30 PM88 °FBroken clouds.8 mph59%29.83 "HgN/A
5:00 PM90 °FPartly sunny.5 mph59%29.83 "HgN/A
4:30 PM90 °FPartly sunny.6 mph55%29.83 "HgN/A
4:00 PM90 °FSprinkles. Partly sunny.2 mph55%29.83 "HgN/A
3:30 PM90 °FPartly sunny.8 mph59%29.83 "HgN/A
3:00 PM93 °FBroken clouds.8 mph49%29.86 "HgN/A
2:30 PM93 °FBroken clouds.6 mph49%29.86 "HgN/A
2:00 PM91 °FBroken clouds.8 mph52%29.86 "HgN/A
1:30 PM95 °FBroken clouds.6 mph50%29.86 "HgN/A
1:00 PM93 °FBroken clouds.3 mph53%29.86 "HgN/A
12:30 PM91 °FBroken clouds.6 mph52%29.89 "HgN/A
12:00 PM91 °FPartly sunny.6 mph52%29.89 "HgN/A
Weather by CustomWeather, © 2016

See weather overviewHow to use our weather pages